Theta_e
308 308 308 308 308 307 307 307 306 306 306 305 305 304 304 304 304 305 305 305 305 305 306 307 307 307 306 306 306 307 309 311 314 317 319 321 322 323 324 324 324 325 325 326 326 327 328 328 327 328 328 328 328 328 328 328 328 328 327 327 327 327 327
308 308 308 308 308 308 307 307 306 306 306 305 305 305 305 304 304 304 304 304 304 303 304 304 304 304 304 304 304 304 304 305 306 307 309 312 314 317 319 320 322 323 323 324 324 325 326 326 326 326 326 326 327 327 327 327 328 328 327 327 327 327 327
309 309 309 308 308 308 308 307 307 306 306 305 305 305 305 305 305 305 304 304 304 304 304 304 304 304 304 304 304 304 304 304 304 303 304 305 306 308 310 312 314 316 318 319 320 321 322 324 324 324 324 323 324 325 326 326 327 327 328 328 328 327 328
309 309 309 309 309 309 308 308 307 307 306 306 305 305 305 305 305 305 304 305 304 304 304 304 304 305 305 305 305 305 305 304 304 304 303 303 303 303 304 305 306 308 310 312 314 315 316 318 320 321 321 321 320 320 320 322 323 324 325 326 327 327 327
309 309 309 309 309 309 309 308 308 307 307 306 306 306 305 305 305 305 305 305 305 304 304 304 305 305 305 305 305 305 305 305 305 304 304 303 303 302 302 302 303 304 305 307 310 311 313 315 316 317 318 318 317 316 314 313 314 316 318 320 322 323 322
309 309 309 309 310 310 309 309 308 308 307 307 307 306 306 306 306 305 305 305 305 305 305 305 305 305 305 305 305 305 305 305 305 304 304 303 303 303 303 302 302 302 303 304 306 308 312 314 315 316 317 317 316 316 313 309 308 307 308 312 316 319 320
309 309 310 310 310 310 310 310 309 309 308 308 307 307 307 306 306 306 306 305 306 305 305 305 305 305 305 305 305 305 305 305 304 304 304 303 303 303 303 303 302 302 302 302 303 304 307 310 313 315 315 315 315 315 313 311 309 308 308 309 309 313 317
309 310 310 310 310 311 310 310 310 309 309 308 308 308 307 307 307 306 306 306 306 306 305 305 305 304 304 304 305 305 305 305 304 304 304 303 303 303 302 303 303 303 303 303 302 302 303 304 308 311 312 314 315 315 315 313 312 312 311 309 306 306 310
310 310 310 311 311 311 311 311 311 311 310 309 309 309 308 308 307 307 307 306 306 306 306 306 305 305 304 304 304 304 304 304 304 304 303 303 303 302 302 302 302 303 303 303 303 303 303 302 304 306 309 312 313 314 315 315 315 315 313 311 310 309 309
310 310 311 311 311 311 311 311 311 311 311 311 310 309 309 309 308 307 307 307 307 307 306 306 306 305 304 304 304 304 304 304 304 303 303 303 302 302 302 302 302 302 302 302 302 303 303 303 304 304 306 309 311 312 313 314 315 316 315 314 313 312 312
310 310 311 311 312 312 312 312 312 312 312 312 311 311 310 309 308 308 308 307 307 306 306 306 306 306 305 304 304 304 304 304 304 303 303 302 302 302 302 301 301 301 301 301 302 302 303 303 304 304 305 307 309 310 312 313 313 314 314 314 314 315 316
309 310 311 311 312 312 312 312 312 312 312 312 312 312 311 310 309 309 308 308 307 307 306 306 306 306 305 304 303 303 304 304 303 303 303 302 302 301 301 301 300 300 300 300 300 300 301 302 303 304 305 306 307 308 309 311 312 311 311 313 314 314 314
309 310 310 311 311 311 312 313 313 313 313 313 313 313 313 312 311 310 309 308 308 307 307 306 306 306 306 304 303 303 303 303 303 303 303 302 302 301 300 300 300 300 299 299 299 299 299 300 300 302 303 305 306 308 308 309 310 309 309 310 309 309 310
310 310 310 311 312 312 312 313 314 314 314 313 313 313 313 313 313 312 310 309 308 308 308 307 307 306 306 304 303 303 303 304 303 303 303 302 302 301 300 300 300 300 299 299 299 299 298 298 298 299 300 302 304 307 308 309 309 309 308 308 308 308 308
312 311 311 312 314 315 315 314 315 316 316 315 314 314 314 314 314 313 312 311 309 309 308 308 307 307 306 305 303 303 303 303 303 303 303 302 302 301 301 300 300 299 299 299 299 298 298 298 297 297 298 299 301 303 305 307 308 308 308 308 308 308 308
315 315 314 314 316 317 318 318 317 317 318 317 316 315 315 315 314 314 313 312 311 310 309 309 308 307 306 305 303 302 303 303 303 303 302 302 301 301 301 300 300 299 299 299 298 298 298 297 297 297 297 297 298 299 300 303 305 306 306 306 307 307 308
319 319 319 318 318 318 319 320 320 319 319 319 318 317 316 316 315 314 314 313 312 311 310 310 309 308 306 305 303 302 303 303 302 302 301 301 301 300 300 300 299 299 298 298 298 298 297 297 296 296 296 297 298 298 298 298 300 302 302 303 304 305 306
321 321 321 320 320 320 320 321 321 321 320 320 320 319 318 316 316 315 314 314 313 311 311 310 310 308 307 305 303 302 302 303 302 302 301 301 300 300 300 299 299 299 298 298 298 297 296 296 295 296 296 297 298 298 299 298 299 300 301 301 301 301 303
322 322 322 322 322 321 321 321 321 322 321 320 320 320 319 318 316 315 315 314 313 312 311 311 310 308 306 305 303 302 302 302 302 302 302 301 301 300 300 299 299 299 298 298 296 295 295 295 295 295 296 297 298 299 299 299 299 300 300 300 299 299 300
323 323 323 323 323 322 322 322 322 322 322 320 318 318 318 318 318 316 315 315 314 312 312 311 310 308 306 304 303 302 302 302 302 302 302 302 301 301 300 300 299 299 297 296 295 294 294 294 295 296 296 297 298 299 300 300 299 300 300 300 300 300 299
321 322 323 323 324 323 323 323 323 323 322 321 319 317 317 317 318 317 316 315 313 312 312 311 310 308 305 303 302 302 303 303 303 302 302 302 301 301 301 300 299 297 295 294 294 294 294 294 295 296 296 297 298 298 299 300 300 300 300 300 300 300 300
313 316 319 321 322 323 323 323 323 323 323 322 320 318 316 317 318 318 317 315 313 312 312 311 309 307 304 303 303 303 303 303 303 302 302 302 301 301 300 299 297 295 294 293 293 294 294 294 295 296 296 297 298 298 298 299 299 300 300 300 300 300 301
305 308 311 315 318 320 321 321 322 322 322 322 321 319 317 316 317 317 317 315 313 312 311 310 309 306 303 303 303 304 304 303 303 302 302 301 301 300 299 296 294 293 293 293 293 294 294 294 295 295 296 296 297 297 298 298 298 299 299 300 300 300 301
304 304 305 309 313 317 319 320 321 321 321 322 321 319 317 316 316 316 315 314 313 312 311 310 307 305 303 303 304 304 304 303 302 302 301 301 300 298 296 293 293 293 293 293 294 294 294 295 295 295 295 296 296 297 297 297 298 298 298 299 299 300 300
304 304 304 304 306 310 314 318 320 320 321 321 320 319 317 316 316 315 314 313 312 311 310 308 305 303 303 303 304 304 303 303 302 301 300 299 297 294 293 292 293 293 294 294 294 295 295 295 295 295 295 296 296 296 297 297 297 297 297 298 298 299 299
303 304 304 303 304 305 308 313 317 319 320 320 320 318 316 315 315 314 313 312 310 309 307 306 304 303 304 304 304 304 303 302 301 300 298 295 293 293 293 293 294 294 294 295 295 295 295 295 296 296 296 296 296 296 296 297 297 297 297 297 297 298 298
302 303 303 303 303 303 305 308 313 317 319 319 319 318 316 315 314 313 312 311 309 307 305 304 303 304 305 304 304 303 302 301 299 296 294 293 293 293 294 294 294 295 295 295 295 296 296 296 296 296 296 296 296 296 296 297 297 297 297 297 297 297 297
302 302 303 303 303 303 304 306 310 315 318 318 318 317 316 315 313 312 311 309 307 305 304 304 304 305 304 304 303 301 300 297 295 293 293 293 293 294 294 294 295 295 295 296 296 296 296 296 296 296 296 296 296 296 296 296 296 296 296 296 296 297 297
303 302 303 303 303 303 304 305 309 315 317 317 316 316 314 313 312 311 309 307 305 304 303 304 304 304 303 302 300 298 295 293 293 293 293 293 294 294 294 295 295 295 296 296 296 296 296 296 296 296 296 296 296 296 295 295 296 296 296 296 296 296 296
304 303 303 303 303 303 304 307 311 316 318 317 315 314 313 312 311 309 307 304 304 303 303 303 303 302 301 299 296 294 293 293 293 293 293 294 294 295 295 295 296 296 296 296 296 295 295 295 295 295 295 295 295 295 295 295 295 295 295 295 295 296 296
305 305 304 304 303 304 306 309 313 316 316 315 314 313 312 310 308 306 304 304 304 303 302 302 300 299 296 294 293 292 292 293 293 293 294 294 295 295 295 295 296 296 295 295 295 294 294 294 294 294 293 293 293 293 293 293 293 293 294 294 295 295 295
306 306 306 305 305 305 306 310 314 315 314 313 313 311 309 307 305 304 303 303 302 302 300 298 296 294 293 292 292 292 293 293 293 293 294 294 294 294 295 295 295 295 295 295 294 294 294 293 293 293 292 292 292 292 292 292 292 292 292 292 293 293 293
306 306 306 306 306 307 309 311 314 314 311 309 309 307 305 304 303 302 301 300 299 297 295 293 292 292 292 292 292 292 292 293 293 293 293 294 294 293 294 293 293 294 294 294 294 294 293 293 293 292 292 291 291 291 291 291 291 291 291 291 291 291 292
306 306 307 308 308 309 311 312 313 311 309 307 305 303 302 302 302 300 298 296 294 293 292 292 292 292 292 292 291 292 292 292 292 293 293 293 293 293 293 293 293 293 294 294 294 293 293 293 292 292 292 291 292 292 291 291 290 290 290 290 290 291 291
306 307 308 309 310 311 311 311 310 309 306 305 304 303 303 302 301 298 295 293 292 292 292 292 292 291 291 291 291 291 291 292 292 293 293 293 292 292 292 292 292 293 293 293 293 293 292 292 292 292 292 292 292 292 291 290 290 289 289 290 290 290 290
307 308 309 310 310 310 309 308 307 306 305 303 303 301 299 297 296 294 293 292 292 292 291 291 291 291 291 291 291 291 292 293 293 293 293 293 292 292 292 292 292 292 292 292 292 292 292 292 291 292 292 292 292 292 291 291 290 290 290 290 290 290 290
308 309 309 309 309 307 306 304 302 301 300 299 297 296 294 293 293 293 292 292 292 291 291 291 291 290 290 291 292 292 293 293 293 293 293 293 293 292 292 292 292 292 292 292 292 291 291 292 292 292 292 292 292 292 292 292 292 291 291 291 290 291 291
Wind_Speed
8 7 7 7 7 7 7 7 7 7 8 9 9 9 9 8 8 7 7 6 5 5 4 3 2 2 2 1 0 1 3 4 5 6 6 5 5 5 5 5 6 7 7 7 7 6 5 6 10 12 12 13 13 14 14 15 16 17 17 17 16 16 15
10 8 7 6 6 6 6 6 6 7 7 8 8 8 8 8 8 8 8 7 6 6 6 5 4 4 3 3 3 2 1 2 3 4 5 6 7 7 7 7 6 6 7 7 7 7 6 6 9 11 13 14 14 15 15 16 17 18 19 19 18 18 18
12 10 9 8 7 6 6 6 6 6 6 7 7 7 7 7 6 6 6 5 5 5 4 4 4 4 4 4 4 5 4 4 4 4 4 5 6 7 7 8 9 9 9 8 8 8 7 7 8 10 12 14 15 17 18 19 19 19 20 20 21 21 21
13 12 11 10 8 7 7 6 6 5 5 5 6 6 6 5 5 5 5 4 4 4 4 3 3 3 4 4 5 6 7 7 6 5 5 5 5 6 7 7 8 9 10 9 9 8 7 7 8 9 10 11 14 17 19 19 19 19 20 21 21 22 22
14 13 12 10 9 8 7 7 7 6 5 5 5 5 5 5 4 4 3 3 3 4 4 4 3 4 4 5 6 7 7 7 7 7 6 6 5 6 6 7 7 8 9 9 9 9 7 7 8 10 10 11 13 16 18 20 20 19 20 19 19 21 23
16 14 13 11 9 8 8 8 7 7 6 5 5 5 4 4 4 3 3 2 1 2 3 3 4 4 5 6 7 7 7 8 7 7 6 6 5 5 5 6 6 7 8 9 10 10 8 7 7 10 11 12 13 15 17 19 20 20 20 19 17 16 17
17 16 14 12 11 10 10 9 8 8 7 6 6 6 5 4 4 4 3 2 1 0 1 2 3 4 5 5 7 7 8 8 8 8 8 8 7 6 5 5 6 6 7 8 10 10 10 9 7 8 11 12 14 15 16 18 18 18 17 18 18 17 16
18 17 15 14 13 12 11 10 9 9 9 8 8 8 7 6 6 5 5 4 3 2 2 3 3 4 4 5 6 7 8 8 8 9 9 9 9 9 8 7 6 7 7 8 8 9 10 10 9 8 9 11 13 14 14 15 16 16 16 17 18 19 17
19 18 17 16 15 14 13 12 11 10 10 10 10 10 9 8 8 7 7 6 5 4 4 4 5 5 5 5 6 6 7 8 8 8 9 9 9 10 10 10 9 8 8 8 9 9 9 11 10 10 10 9 11 13 14 14 14 14 15 15 14 15 15
20 19 18 17 16 16 15 14 13 12 12 11 12 12 11 10 10 9 9 8 7 6 6 6 6 7 7 7 7 7 8 9 9 9 9 9 9 9 10 10 10 9 9 9 9 10 10 11 10 11 11 9 9 12 13 15 15 13 12 13 13 13 13
21 20 19 19 18 18 18 17 16 15 15 14 14 13 13 12 12 11 10 10 9 8 8 7 8 8 8 8 8 9 9 10 10 10 10 9 9 9 9 10 10 9 9 9 8 9 10 11 12 12 12 11 11 12 12 15 18 16 13 14 13 12 13
23 22 22 21 21 21 20 19 18 18 17 17 17 16 15 15 14 12 12 11 11 11 10 9 9 10 10 10 10 10 11 11 12 12 12 12 12 11 11 11 10 10 11 10 10 9 9 10 12 12 14 14 12 13 14 15 20 21 16 14 15 14 15
26 25 25 25 25 24 23 21 21 20 19 19 19 18 18 17 15 14 13 13 13 13 12 11 11 11 11 11 12 12 13 13 13 14 14 15 15 14 14 14 13 13 12 12 12 12 11 11 11 12 14 15 13 12 13 15 21 25 22 21 23 21 20
29 29 28 27 27 27 25 24 23 22 21 21 21 20 20 18 17 15 14 14 14 15 14 13 13 13 12 13 13 14 14 14 14 15 16 16 17 17 16 16 16 16 16 15 15 15 15 15 15 13 13 14 13 12 12 13 19 25 25 23 23 22 22
33 32 31 30 30 28 27 26 25 24 23 23 22 21 20 19 18 17 16 16 16 16 16 15 15 14 14 15 15 15 15 15 15 16 16 17 18 18 18 18 18 18 18 18 18 19 19 19 19 18 16 16 15 14 14 14 16 22 25 23 21 20 21
33 33 32 32 31 30 29 27 26 26 25 24 24 23 22 20 19 18 18 18 18 18 18 17 16 16 16 16 17 17 16 16 16 16 16 17 18 19 19 20 20 20 20 20 21 21 22 22 21 20 20 19 19 18 18 17 17 21 25 25 22 21 20
30 31 30 30 31 30 30 29 28 27 27 26 25 24 23 21 21 20 20 20 20 20 20 19 18 18 18 18 18 18 18 17 17 17 17 17 18 19 20 21 22 22 22 23 23 23 23 23 22 22 22 21 21 22 21 21 21 23 27 29 28 25 22
28 29 29 28 28 29 30 31 31 30 30 29 28 26 24 23 22 22 22 22 21 21 21 20 19 20 20 20 20 20 19 18 18 18 18 19 19 20 21 22 23 24 25 26 26 25 24 24 23 23 23 22 22 23 23 23 23 23 26 30 33 32 29
24 25 26 27 26 27 29 30 31 34 34 33 30 28 25 24 23 23 22 22 22 22 22 21 21 21 21 22 21 21 20 19 19 19 20 21 22 23 24 25 25 26 27 28 28 27 25 24 23 23 23 23 23 23 24 25 25 24 26 29 33 35 34
24 24 23 24 24 25 26 27 30 34 34 32 30 28 26 25 24 24 23 23 23 23 22 22 22 22 23 22 22 21 20 19 20 20 21 22 24 25 26 27 28 29 29 29 28 27 26 25 24 23 23 23 24 24 25 25 26 26 27 30 32 34 35
21 24 24 22 22 22 22 24 27 29 29 29 28 27 26 26 26 25 24 24 24 23 23 23 23 23 23 22 22 21 20 20 21 22 23 24 25 27 28 30 31 30 30 28 27 27 26 25 25 25 24 24 24 25 26 26 26 27 28 30 32 33 35
14 18 19 19 19 19 19 20 22 23 24 25 24 24 25 27 29 28 28 27 26 25 25 25 24 23 22 22 21 21 20 21 22 24 25 27 28 30 31 32 32 31 29 29 28 27 26 25 26 26 25 25 25 26 26 26 26 27 27 28 30 31 33
15 15 15 15 16 17 18 18 19 19 19 20 21 23 26 28 31 31 30 29 28 27 27 25 23 22 22 21 20 20 21 22 24 26 27 29 30 32 33 33 33 32 31 30 30 29 28 27 26 26 26 26 26 26 27 27 26 26 25 25 27 28 29
18 17 17 16 16 17 18 18 17 17 16 17 19 24 27 29 31 31 30 29 28 27 26 24 22 22 22 21 20 21 22 24 26 27 29 31 33 34 34 33 33 33 33 32 32 31 31 29 28 28 27 27 27 27 28 28 28 27 26 24 24 24 25
20 20 19 18 19 19 19 19 17 15 15 16 18 22 27 30 32 31 30 29 27 25 23 22 22 21 21 21 21 22 23 25 27 29 31 32 33 33 33 33 33 34 33 33 32 32 32 32 31 31 30 30 30 30 30 30 30 30 28 28 27 26 25
22 21 20 20 21 21 22 21 18 15 15 16 17 22 28 32 32 32 30 28 25 23 21 20 20 19 19 21 21 23 25 27 29 30 32 32 32 32 32 33 33 34 34 33 33 33 32 32 32 33 33 33 33 33 32 32 32 31 31 31 31 30 28
22 21 21 21 22 23 24 23 19 15 15 16 18 23 30 33 33 31 29 26 23 21 19 18 18 18 19 21 22 24 26 28 30 31 31 30 31 31 32 32 33 34 33 33 32 32 32 32 32 33 33 33 33 31 30 29 30 30 31 32 33 32 31
23 22 21 21 22 24 25 25 21 17 15 16 19 25 31 34 33 30 26 24 21 19 17 16 16 18 20 21 23 25 27 29 29 29 29 29 30 31 32 32 33 33 33 33 32 31 31 31 32 33 33 33 32 30 27 25 25 25 26 27 29 29 27
23 23 22 22 22 24 25 25 21 16 15 16 20 27 32 33 32 28 25 22 19 17 15 15 17 19 21 22 24 25 26 27 27 28 29 30 31 31 32 32 32 32 32 32 31 30 29 29 30 32 32 33 32 30 29 27 28 30 30 30 30 29 28
22 23 22 22 23 24 24 22 17 15 16 19 23 31 34 32 28 25 22 19 17 15 15 16 17 19 20 22 23 24 24 25 27 28 30 31 31 32 32 32 31 30 31 30 30 28 27 28 29 30 31 32 31 30 29 27 29 33 35 36 37 36 36
23 23 22 22 23 24 22 18 15 15 18 22 27 32 32 28 24 20 17 15 14 13 14 15 17 18 19 20 21 22 23 25 27 29 30 31 32 33 32 32 31 30 29 29 28 27 26 27 28 29 29 29 29 29 28 27 27 29 31 34 35 36 37
24 24 23 22 23 24 22 18 16 19 22 27 31 32 28 23 19 16 14 13 12 12 13 14 15 16 16 17 19 21 23 25 28 29 30 32 33 32 30 29 29 29 30 29 27 26 25 26 28 28 28 28 29 30 29 27 26 25 27 28 30 30 30
24 25 24 24 24 23 19 16 18 23 27 29 28 25 22 19 15 13 10 9 10 11 12 12 13 14 15 16 19 21 23 25 28 29 32 34 31 28 26 24 24 27 30 30 29 27 26 26 28 29 29 29 30 30 28 26 25 25 25 26 26 27 27
24 24 25 23 20 18 17 17 21 26 29 27 22 19 17 15 12 9 7 7 8 8 9 10 10 12 14 16 18 21 23 26 28 30 34 32 26 23 25 25 25 29 31 30 29 29 28 28 28 30 31 32 33 33 31 30 30 29 28 28 27 27 26
22 23 22 19 18 19 19 20 23 27 27 23 18 16 13 10 9 8 7 7 7 7 7 9 10 11 14 16 18 21 24 27 28 30 33 31 27 27 31 30 29 31 33 32 31 30 29 28 28 29 31 31 31 30 30 30 29 28 27 28 28 28 26
18 19 19 19 21 22 23 24 25 25 22 19 16 14 10 8 7 5 3 2 3 4 6 8 10 12 14 17 19 22 25 27 28 29 32 33 32 33 33 30 30 33 34 33 31 29 27 26 26 27 27 27 26 25 26 28 30 30 29 29 29 29 28
14 16 18 22 24 26 28 29 26 23 20 17 15 13 12 11 10 8 6 3 2 4 6 8 10 13 15 18 21 23 24 26 27 28 30 32 33 34 33 32 33 34 33 32 30 28 27 26 25 25 24 24 24 24 26 29 31 32 32 32 32 33 34
Wind_Direction
168 166 157 147 135 126 116 108 104 100 96 97 97 97 95 91 91 91 88 88 89 85 77 70 70 66 64 67 136 213 223 224 216 224 231 226 226 228 225 224 222 223 231 235 233 235 237 232 230 235 237 240 245 246 247 250 250 252 256 259 261 265 268
183 187 183 174 159 144 131 120 114 110 106 105 104 103 101 97 95 93 90 89 89 87 84 77 70 57 43 30 17 2 327 288 263 253 248 242 242 243 242 244 242 239 240 242 242 241 241 239 239 245 246 246 249 249 249 251 251 252 254 256 259 263 266
193 198 197 196 189 171 154 142 133 127 122 117 116 114 111 108 105 102 99 99 99 95 88 76 63 49 34 25 20 17 10 354 331 307 288 274 262 256 253 250 250 252 253 256 257 252 250 251 253 261 263 258 255 253 251 251 251 250 250 252 257 262 265
199 205 205 205 206 197 179 166 157 152 145 137 136 133 128 125 120 115 112 111 109 106 99 87 71 60 51 40 33 28 22 15 5 352 332 314 298 283 274 267 260 258 258 258 261 261 263 265 267 272 276 272 264 261 259 257 255 255 255 255 256 260 264
204 212 215 215 216 213 202 189 179 176 172 167 163 158 154 148 144 139 133 125 115 108 100 92 79 65 53 45 40 32 24 16 10 4 354 339 323 308 297 287 278 273 269 267 267 269 268 271 276 279 283 284 278 273 270 266 261 260 262 261 258 259 263
208 215 221 225 226 223 219 212 200 195 195 196 195 193 187 176 174 173 169 168 140 105 86 74 63 51 39 32 32 27 19 13 6 359 353 343 331 317 306 297 289 281 276 273 274 274 274 276 279 282 285 285 282 281 281 278 273 267 265 264 261 260 263
213 216 220 226 230 228 227 225 217 209 206 211 217 218 216 208 208 211 212 223 229 333 37 40 35 34 29 22 20 15 8 4 360 355 350 343 336 326 313 300 289 283 279 277 277 275 277 279 280 284 287 288 287 286 288 287 284 279 272 268 264 260 261
221 222 223 226 233 234 233 232 228 220 213 218 228 233 232 229 232 236 241 252 263 289 324 350 360 5 8 7 7 3 358 356 354 349 345 341 337 333 327 318 305 292 284 280 277 275 275 276 277 278 283 292 298 296 295 293 290 286 282 277 273 267 263
227 229 229 229 233 237 238 236 236 233 226 226 232 238 240 239 241 245 249 257 267 282 301 319 333 339 342 345 347 345 344 345 345 343 341 338 336 333 330 328 324 314 304 294 285 278 273 272 273 274 275 286 296 299 301 299 294 292 290 288 282 275 269
232 235 236 237 237 240 241 240 238 238 235 234 237 241 244 245 247 249 253 260 266 276 290 305 316 320 324 326 328 330 331 332 334 335 336 335 333 331 328 328 328 322 317 310 298 287 280 274 272 271 272 276 283 290 297 298 294 292 292 290 286 283 278
237 239 241 244 244 243 243 242 240 239 238 239 243 245 246 247 248 251 255 261 267 274 283 297 306 309 313 315 315 316 318 323 327 329 331 331 329 328 326 325 326 323 319 316 308 296 287 279 274 270 268 267 267 272 281 288 288 285 286 289 289 284 273
243 243 244 245 247 246 246 244 243 242 241 241 244 246 249 250 251 254 257 262 266 272 278 288 298 304 308 309 308 308 310 317 322 324 326 327 326 328 327 325 323 320 317 318 316 309 300 288 279 272 267 264 262 262 265 273 279 280 279 281 279 274 271
249 250 250 249 250 250 250 248 246 244 243 244 245 247 250 253 255 257 260 263 266 270 276 283 290 299 304 301 299 300 303 309 314 318 320 322 323 324 325 325 323 321 318 319 319 316 313 305 293 282 272 266 263 262 263 265 272 276 277 277 278 279 279
252 254 255 255 255 254 254 253 251 249 247 245 246 247 250 254 257 259 261 263 266 269 274 279 286 294 297 293 290 291 294 301 306 311 314 315 318 319 320 322 321 321 320 320 321 320 319 315 309 303 290 278 271 265 264 265 270 277 280 280 281 282 282
254 255 257 258 257 257 256 256 254 253 250 248 247 248 250 253 256 260 262 263 266 269 272 276 283 290 291 288 286 286 288 294 300 305 309 311 313 314 315 317 317 317 318 317 319 320 318 316 314 310 302 292 282 272 267 267 270 276 279 281 282 281 284
257 256 257 258 259 258 257 257 256 255 253 251 249 248 249 251 254 257 261 262 264 267 270 274 279 284 286 284 282 282 285 291 297 301 304 306 309 311 311 312 313 314 314 314 315 316 315 314 312 308 303 298 292 284 276 272 273 276 279 282 283 281 284
261 258 256 258 258 258 257 258 257 255 254 252 250 248 248 249 250 253 256 258 260 263 265 269 274 278 279 278 277 279 283 290 296 300 303 305 308 309 309 310 311 312 313 313 313 314 314 312 309 305 302 299 296 292 285 279 275 276 279 282 283 282 282
267 263 262 262 261 259 259 259 258 257 255 252 249 247 246 247 248 249 253 256 258 260 262 265 269 272 273 272 272 275 280 287 294 299 303 307 308 308 309 310 311 313 313 313 313 314 313 310 307 304 301 298 295 293 289 284 279 276 276 280 282 283 283
272 272 269 267 266 264 261 260 260 259 256 253 251 248 244 245 247 248 251 255 255 256 259 262 265 267 267 267 269 272 278 285 291 296 302 305 307 309 310 310 311 312 313 313 313 312 311 309 306 303 300 297 294 291 288 286 283 279 277 279 282 284 284
267 273 274 271 269 268 266 263 262 262 261 260 258 254 248 245 247 247 249 250 250 252 254 257 260 262 263 264 266 271 278 286 292 298 302 304 306 307 308 310 311 312 312 312 311 310 309 308 304 302 299 296 294 290 287 286 285 282 281 281 283 284 285
259 263 268 269 270 272 273 270 268 268 270 266 261 257 251 244 243 244 243 244 245 247 249 253 256 258 259 262 266 272 280 288 295 299 302 303 305 306 307 308 310 311 311 309 308 307 306 305 303 301 299 296 294 291 287 286 285 283 282 282 283 284 285
277 270 270 271 270 270 272 273 272 271 272 269 262 257 250 241 238 239 239 240 242 243 247 251 253 256 258 261 267 274 282 290 295 297 299 301 303 305 307 308 309 309 308 307 306 305 303 302 300 298 297 296 293 290 287 285 284 282 280 279 280 282 283
294 289 286 281 273 267 266 268 271 269 270 269 261 252 245 238 234 235 236 236 237 239 243 247 250 253 256 261 269 276 283 288 291 294 296 299 302 305 307 308 308 307 307 306 306 304 302 301 298 297 295 293 290 287 284 282 280 278 277 276 276 278 278
290 289 289 286 278 271 268 268 271 270 269 266 256 247 240 234 230 231 232 232 234 236 239 242 246 249 254 262 270 277 282 286 289 292 296 300 303 305 306 306 306 306 307 307 306 304 303 302 299 297 294 290 287 284 281 279 277 275 273 271 271 271 271
287 286 285 282 278 275 272 269 267 267 266 263 255 245 236 229 226 227 227 229 230 232 234 237 242 248 255 264 272 278 283 287 290 295 299 301 303 304 304 305 305 305 305 305 304 304 303 302 301 298 295 291 287 283 279 277 275 273 271 269 268 267 266
285 283 281 278 274 273 273 270 265 260 261 261 253 241 231 225 222 223 224 226 228 228 230 234 242 251 260 267 273 278 283 287 292 296 299 300 302 303 303 304 304 304 304 304 303 302 301 300 299 296 294 292 288 285 282 278 274 271 269 267 266 266 265
286 282 277 273 269 267 269 271 267 257 253 253 246 234 226 220 218 219 220 221 224 226 228 235 245 256 263 268 274 280 285 289 294 296 298 300 301 302 303 303 303 302 303 302 301 300 299 297 295 293 291 288 286 284 282 279 276 273 271 268 267 266 265
284 280 275 271 267 263 264 267 266 259 250 249 243 232 222 216 214 214 214 215 219 224 230 239 250 259 265 270 277 283 288 292 294 297 298 300 302 302 302 302 301 301 301 300 299 298 296 294 291 289 286 284 282 280 277 274 272 271 269 267 267 267 266
282 277 274 271 266 262 262 263 262 255 246 244 238 225 217 213 212 210 209 212 218 228 239 249 255 260 267 275 282 287 290 293 295 298 300 302 302 302 302 301 301 301 301 300 300 299 296 293 289 286 284 282 280 278 275 272 271 269 266 265 264 264 264
279 272 267 265 263 262 262 262 258 248 242 238 228 218 212 209 207 206 208 214 223 233 242 249 256 264 273 281 285 289 292 296 299 302 304 305 304 303 302 302 302 302 302 303 303 301 298 293 289 286 284 281 279 276 275 274 273 272 271 270 269 267 266
275 268 261 257 256 256 256 253 245 239 238 231 219 210 204 199 198 201 206 212 220 230 240 252 264 273 279 284 288 294 299 303 306 307 308 308 308 307 306 306 307 306 306 306 305 302 298 294 290 287 284 282 279 276 275 275 275 275 275 276 275 274 274
271 264 259 253 249 248 246 240 232 229 225 217 207 199 193 190 191 193 197 206 220 236 250 263 272 278 284 290 297 303 307 310 311 312 313 313 313 312 310 310 310 309 309 309 305 301 297 293 290 287 284 281 278 277 277 278 276 277 277 277 276 276 275
272 262 254 248 244 240 234 229 229 222 207 195 185 177 174 176 180 183 193 213 235 250 260 269 277 285 292 299 305 309 312 314 316 316 317 317 315 312 311 309 308 310 313 312 307 303 300 296 293 291 286 280 277 278 280 278 275 274 275 274 274 274 273
274 259 249 243 236 228 223 226 223 207 189 176 166 160 160 165 176 193 219 241 253 263 272 280 288 297 303 308 313 315 316 317 318 318 318 318 314 310 311 310 308 312 314 313 309 307 303 299 296 291 285 280 279 280 279 277 275 273 272 271 271 271 271
268 251 238 227 218 213 212 210 200 186 175 169 167 167 170 180 199 219 236 249 261 277 291 299 305 310 312 313 315 316 315 316 318 318 318 316 312 310 312 311 310 313 315 315 313 309 304 300 294 287 284 283 283 284 283 281 279 275 272 271 270 269 268
251 234 219 211 210 202 189 177 170 165 162 164 166 167 168 173 179 179 179 221 283 302 307 311 312 311 311 313 315 316 317 318 320 319 317 315 314 313 313 311 310 312 314 315 313 309 303 299 293 288 287 286 286 285 283 280 278 274 273 272 270 268 267
222 215 207 201 192 176 161 153 149 147 150 153 152 145 135 129 122 111 103 89 5 321 312 312 312 312 316 319 321 322 322 322 322 320 317 317 316 314 313 312 312 314 315 316 315 312 309 305 300 297 295 292 289 285 279 276 275 273 272 270 268 267 268